Amsterdam, Netherlands

5:21 PM CEST on April 24, 2018 (GMT +0200)
Schiphol

Weather History for EHAM - October, 2013

Change the Weather History Date:

Friday, October 25, 2013

  Actual Average Record
Temperature  
Mean Temperature 54 °F -  
Max Temperature 63 °F 49 °F 63 °F (2013)
Min Temperature 46 °F 40 °F 35 °F (2003)
Degree Days  
Heating Degree Days 10    
Growing Degree Days 4 (Base 50)    
Moisture  
Dew Point 54 °F    
Average Humidity 90    
Maximum Humidity 94    
Minimum Humidity 82    
Precipitation  
Precipitation 0.03 in - - ()
Sea Level Pressure  
Sea Level Pressure 29.82 in    
Wind  
Wind Speed 10 mph ()    
Max Wind Speed 15 mph    
Max Gust Speed -    
Visibility 7.6 miles    
Events Rain    
Averages and records for this station are not official NWS values.
T = Trace of Precipitation, MM = Missing Value Source: Averaged Metar Reports

Daily Weather History Graph

Daily Weather History Graph

Search for Another Location

Airport or City:

Astronomy

Oct. 25, 2013 Rise Set
Actual Time 8:23 AM CEST 6:25 PM CEST
Civil Twilight 7:48 AM CEST 7:00 PM CEST
Nautical Twilight 7:09 AM CEST 7:39 PM CEST
Astronomical Twilight 6:29 AM CEST 8:19 PM CEST
Moon 11:17 PM CEST (10/25) 2:08 PM CEST (10/25)
Length of Visible Light 11h 11m
Length of Day
10h 01m
Waning Gibbous, 65% of the Moon is Illuminated
Oct 25
Waning Gibbous
Oct 27
Last Quarter
Nov 3
New
Nov 10
First Quarter
Nov 17
Full

Hourly Weather History & Observations

Time (CEST) Temp. Dew Point Humidity Pressure Visibility Wind Dir Wind Speed Gust Speed Precip Events Conditions
12:25 AM 50.0 °F 48.2 °F 94% 29.98 in - ESE 8.1 mph - N/A   Clear
12:55 AM 50.0 °F 48.2 °F 94% 29.98 in - East 9.2 mph - N/A   Clear
1:25 AM 50.0 °F 48.2 °F 94% 29.98 in - ESE 8.1 mph - N/A   Clear
1:55 AM 50.0 °F 48.2 °F 94% 29.98 in - ESE 8.1 mph - N/A   Clear
2:00 AM 50 °F 47 °F 88% 29.99 in 10 mi ESE 6.7 mph - -   Partly Cloudy
2:25 AM 50.0 °F 48.2 °F 94% 29.98 in - East 8.1 mph - N/A   Clear
2:55 AM 50.0 °F 48.2 °F 94% 29.95 in - ESE 9.2 mph - N/A   Clear
3:25 AM 51.8 °F 48.2 °F 88% 29.95 in - ESE 9.2 mph - N/A   Clear
3:55 AM 51.8 °F 48.2 °F 88% 29.95 in - East 9.2 mph - N/A   Clear
4:25 AM 51.8 °F 48.2 °F 88% 29.92 in - East 9.2 mph - N/A   Clear
4:55 AM 51.8 °F 50.0 °F 94% 29.92 in - ESE 9.2 mph - N/A   Clear
5:00 AM 52 °F 49 °F 87% 29.91 in 10 mi ESE 8.9 mph - -   Overcast
5:25 AM 51.8 °F 50.0 °F 94% 29.89 in - East 10.4 mph - N/A   Clear
5:55 AM 51.8 °F 50.0 °F 94% 29.86 in - East 10.4 mph - N/A   Clear
6:25 AM 53.6 °F 50.0 °F 88% 29.83 in - ESE 13.8 mph - N/A   Clear
6:55 AM 53.6 °F 50.0 °F 88% 29.83 in - ESE 12.7 mph - N/A   Clear
7:25 AM 53.6 °F 50.0 °F 88% 29.80 in - ESE 12.7 mph - N/A   Clear
7:55 AM 53.6 °F 50.0 °F 88% 29.80 in - ESE 11.5 mph - N/A   Clear
8:00 AM 53 °F 50 °F 87% 29.82 in 10 mi ESE 11.2 mph - -   Partly Cloudy
8:25 AM 53.6 °F 50.0 °F 88% 29.80 in - ESE 10.4 mph - N/A   Clear
8:55 AM 53.6 °F 51.8 °F 94% 29.80 in 6.2 mi ESE 10.4 mph - N/A Rain Light Rain
9:25 AM 55.4 °F 51.8 °F 88% 29.80 in - SE 11.5 mph - N/A   Clear
9:55 AM 55.4 °F 51.8 °F 88% 29.77 in 6.2 mi SE 12.7 mph - N/A Rain Light Rain
10:25 AM 55.4 °F 53.6 °F 94% 29.80 in 6.2 mi SE 12.7 mph - N/A   Partly Cloudy
10:55 AM 57.2 °F 53.6 °F 88% 29.77 in - SE 11.5 mph - N/A   Clear
11:00 AM 57 °F 53 °F 84% 29.79 in 12 mi SE 11.2 mph - - Rain Rain
11:25 AM 57.2 °F 53.6 °F 88% 29.77 in - SSE 13.8 mph - N/A   Clear
11:55 AM 57.2 °F 53.6 °F 88% 29.77 in 6.2 mi SSE 13.8 mph - N/A   Light Drizzle
12:25 PM 59.0 °F 55.4 °F 88% 29.77 in 6.2 mi SSE 13.8 mph - N/A   Mostly Cloudy
12:55 PM 59.0 °F 55.4 °F 88% 29.77 in 6.2 mi South 15.0 mph - N/A   Mostly Cloudy
1:25 PM 60.8 °F 57.2 °F 88% 29.74 in 6.2 mi South 13.8 mph - N/A   Mostly Cloudy
1:55 PM 60.8 °F 57.2 °F 88% 29.74 in 6.2 mi South 15.0 mph - N/A   Mostly Cloudy
2:00 PM 61 °F 57 °F 84% 29.77 in 12 mi South 13.4 mph - -   Partly Cloudy
2:25 PM 60.8 °F 57.2 °F 88% 29.77 in 6.2 mi South 11.5 mph - N/A   Overcast
2:55 PM 62.6 °F 59.0 °F 88% 29.77 in 6.2 mi South 12.7 mph - N/A   Mostly Cloudy
3:25 PM 62.6 °F 59.0 °F 88% 29.77 in 6.2 mi SSW 13.8 mph - N/A   Overcast
3:55 PM 62.6 °F 59.0 °F 88% 29.77 in 6.2 mi SSW 13.8 mph - N/A   Overcast
4:25 PM 62.6 °F 59.0 °F 88% 29.77 in 6.2 mi SSW 13.8 mph - N/A   Mostly Cloudy
4:55 PM 62.6 °F 59.0 °F 88% 29.77 in 6.2 mi SSW 13.8 mph - N/A   Overcast
5:00 PM 63 °F 59 °F 82% 29.78 in 16 mi SSW 13.4 mph - -   Overcast
5:25 PM 62.6 °F 59.0 °F 88% 29.77 in 6.2 mi SSW 12.7 mph - N/A   Overcast
5:55 PM 62.6 °F 59.0 °F 88% 29.77 in 6.2 mi SSW 11.5 mph - N/A   Scattered Clouds
6:25 PM 62.6 °F 59.0 °F 88% 29.77 in 6.2 mi South 9.2 mph - N/A   Mostly Cloudy
6:55 PM 62.6 °F 59.0 °F 88% 29.77 in 6.2 mi South 10.4 mph - N/A   Scattered Clouds
7:25 PM 62.6 °F 59.0 °F 88% 29.77 in 6.2 mi South 9.2 mph - N/A   Partly Cloudy
7:55 PM 60.8 °F 59.0 °F 94% 29.77 in 6.2 mi South 10.4 mph - N/A Rain Light Rain
8:00 PM 62 °F 59 °F 88% 29.79 in 10 mi South 11.2 mph - - Rain Light Drizzle
8:25 PM 60.8 °F 59.0 °F 94% 29.77 in 6.2 mi South 10.4 mph - N/A Rain Light Rain
8:55 PM 60.8 °F 59.0 °F 94% 29.77 in 6.2 mi South 11.5 mph - N/A Rain Light Rain
9:25 PM 60.8 °F 59.0 °F 94% 29.77 in 6.2 mi South 12.7 mph - N/A Rain Light Rain
9:55 PM 60.8 °F 59.0 °F 94% 29.77 in - South 11.5 mph - N/A   Clear
10:25 PM 60.8 °F 59.0 °F 94% 29.77 in - South 13.8 mph - N/A   Clear
10:55 PM 60.8 °F 57.2 °F 88% 29.77 in - South 12.7 mph - N/A   Clear
11:00 PM 60 °F 58 °F 90% 29.80 in 13 mi South 11.2 mph - -   Partly Cloudy
11:25 PM 59.0 °F 57.2 °F 94% 29.77 in - South 11.5 mph - N/A   Clear
11:55 PM 59.0 °F 57.2 °F 94% 29.77 in - South 12.7 mph - N/A   Clear